[[{"header":{"parameterUnit":"m.s-1","parameterCategory":2,"la1":30.2991,"la2":30.254,"lo1":-89.0895,"lo2":-89.0444,"dy":0.0017,"dx":0.0017,"nx":28,"ny":28,"refTime":"2025-07-13T21:00:00:Z","depth":"0","parameterNumber":2,"parameterNumberName":"U-component_of_CURRENTS"},"data":[0,0,0,0,0,0,0,0,0,0,0,0,0,0,0,0,0,0,0,0,0,0,0,0,0,0,0,0,0,0,0,0,0,0,0,0,0,0,0,0,0,0,0,0,0,0,0,0,0,0,0,0,0,0,0,0,0,0,-0.2226,-0.2227,0,-0.2316,-0.2317,-0.2318,-0.2336,-0.2335,-0.2335,-0.2335,-0.2336,-0.2336,-0.2336,0,0,0,0,0,0,0,0,0,0,0,0,0,-0.2093,-0.2095,-0.2226,-0.2227,-0.2229,-0.2316,-0.2317,-0.2318,-0.2336,-0.2335,-0.2335,-0.2335,-0.2335,-0.2336,-0.2336,0,0,0,0,0,0,0,0,0,0,0,0,0,-0.216,-0.2096,-0.2225,-0.2251,-0.2255,-0.2316,-0.2317,-0.2318,-0.2336,-0.2335,-0.2335,-0.2335,-0.2335,-0.2336,-0.2336,-0.2348,0,0,-0.2338,-0.2338,0,0,0,0,0,0,0,0,-0.2156,-0.2164,-0.2246,-0.225,-0.2254,-0.2318,-0.2271,-0.2325,-0.2336,-0.2301,-0.2335,-0.2334,-0.2325,-0.2326,-0.2339,-0.2348,-0.2348,-0.2338,-0.2338,-0.2338,-0.2338,0,0,0,0,0,0,0,-0.2151,-0.216,-0.2257,-0.2248,-0.2253,-0.2268,-0.2276,-0.2282,-0.2309,-0.2304,-0.2306,-0.2323,-0.2325,-0.2339,-0.2339,-0.2348,-0.2338,-0.2338,-0.2338,-0.2338,-0.2401,-0.2403,0,0,0,0,0,0,-0.2149,-0.2156,-0.2254,-0.226,-0.2208,-0.2271,-0.228,-0.2294,-0.2311,-0.2315,-0.2324,-0.2324,-0.2338,-0.2338,-0.2339,-0.2363,-0.2338,-0.2339,-0.2339,-0.24,-0.2402,-0.2403,0,0,0,0,0,0,-0.2145,-0.2156,-0.2251,-0.2214,-0.2227,-0.2274,-0.229,-0.2297,-0.2309,-0.2328,-0.2329,-0.233,-0.2338,-0.2338,-0.2351,-0.2362,-0.2339,-0.2339,-0.2398,-0.2401,-0.2403,-0.2404,0,0,0,0,0,0,-0.2141,-0.2154,-0.2155,-0.2214,-0.223,-0.2281,-0.2291,-0.2299,-0.2323,-0.2324,-0.2334,-0.2334,-0.2337,-0.235,-0.2351,-0.2362,-0.2339,-0.2397,-0.2399,-0.2402,-0.2402,-0.2406,-0.2409,0,0,0,0,0,-0.2136,-0.2137,-0.2154,-0.2166,-0.2232,-0.2281,-0.229,-0.2318,-0.2324,-0.2327,-0.2342,-0.2334,-0.2368,-0.2351,-0.2352,-0.2364,-0.2395,-0.2399,-0.2402,-0.2401,-0.2405,-0.2409,0,0,0,0,0,0,-0.2072,-0.2141,-0.2161,-0.2181,-0.2227,-0.2285,-0.2293,-0.2318,-0.2335,-0.2331,-0.2344,-0.2345,-0.2365,-0.2368,-0.235,-0.2394,-0.2383,-0.2387,-0.2382,-0.2387,-0.239,-0.2362,-0.234,0,0,0,0,0,-0.2063,-0.208,-0.2151,-0.2163,-0.2188,-0.2241,-0.2262,-0.2287,-0.2318,-0.2325,-0.2338,-0.2356,-0.2382,-0.2384,-0.2402,-0.2416,-0.242,-0.243,-0.2433,-0.2436,-0.2417,-0.2465,-0.2471,-0.2414,-0.2414,-0.2414,0,0,-0.2039,-0.208,-0.2088,-0.215,-0.2186,-0.2219,-0.225,-0.2283,-0.2303,-0.2321,-0.2337,-0.2365,-0.239,-0.2415,-0.2424,-0.2414,-0.2453,-0.244,-0.2442,-0.2421,-0.2469,-0.2474,-0.2479,-0.2416,-0.2415,-0.2415,0,0,-0.2007,-0.2042,-0.2051,-0.2092,-0.2154,-0.2194,-0.2204,-0.2267,-0.2284,-0.2313,-0.2342,-0.238,-0.2399,-0.2433,-0.245,-0.2484,-0.2474,-0.249,-0.2476,-0.2523,-0.2528,-0.2532,-0.2531,-0.2535,-0.2487,-0.2487,-0.2487,0,-0.1975,-0.2003,-0.2059,-0.2085,-0.2115,-0.2182,-0.2202,-0.2236,-0.2291,-0.2307,-0.2311,-0.2385,-0.2411,-0.2457,-0.2472,-0.249,-0.2493,-0.2454,-0.2526,-0.253,-0.2534,-0.2532,-0.2536,-0.2487,-0.2487,-0.2487,-0.2487,0,-0.1962,-0.1984,-0.1994,-0.2051,-0.2088,-0.2115,-0.2184,-0.2213,-0.2245,-0.2283,-0.2332,-0.2382,-0.2423,-0.2452,-0.2466,-0.2516,-0.25,-0.2527,-0.2508,-0.2539,-0.2536,-0.254,-0.2488,-0.2488,-0.2487,-0.2487,0,0,-0.1892,-0.1968,-0.197,-0.1991,-0.2074,-0.2102,-0.2143,-0.2201,-0.2222,-0.2276,-0.2305,-0.2376,-0.2408,-0.243,-0.2473,-0.2512,-0.2552,-0.252,-0.2522,-0.2504,-0.2615,-0.2526,-0.2522,-0.2589,-0.259,-0.2591,-0.2595,0,-0.1864,-0.1893,-0.1945,-0.197,-0.1997,-0.207,-0.2102,-0.216,-0.221,-0.2252,-0.2322,-0.2363,-0.2399,-0.2422,-0.2472,-0.2536,-0.2565,-0.2545,-0.2599,-0.2599,-0.2506,-0.2526,-0.2462,-0.2454,-0.2599,-0.26,-0.26,0,-0.184,-0.1864,-0.1882,-0.1939,-0.1957,-0.1979,-0.2045,-0.2082,-0.2165,-0.2201,-0.2263,-0.2316,-0.2387,-0.2417,-0.2518,-0.2499,-0.2546,-0.2591,-0.2594,-0.2508,-0.2519,-0.2451,-0.2456,-0.2332,-0.2607,-0.2606,-0.2606,0,-0.1771,-0.182,-0.1827,-0.185,-0.1926,-0.1939,-0.1976,-0.2057,-0.2083,-0.2165,-0.2189,-0.2285,-0.2323,-0.2411,-0.249,-0.251,-0.258,-0.2632,-0.2592,-0.2586,-0.2538,-0.2524,-0.2414,-0.2698,-0.2698,-0.2698,-0.2698,0,-0.1731,-0.1734,-0.179,-0.1795,-0.1798,-0.1875,-0.1887,-0.1944,-0.2014,-0.2043,-0.2146,-0.2181,-0.2324,-0.2383,-0.2467,-0.2512,-0.2565,-0.2573,-0.2584,-0.2534,-0.2521,-0.2415,-0.2377,-0.2698,-0.2698,-0.2698,-0.2698,0,-0.1659,-0.1698,-0.1704,-0.1756,-0.1766,-0.1765,-0.1815,-0.1832,-0.1907,-0.1949,-0.197,-0.2095,-0.2167,-0.2272,-0.2403,-0.2461,-0.2468,-0.2536,-0.2432,-0.243,-0.228,-0.2246,-0.2234,-0.2168,-0.2505,-0.2503,-0.2501,0,-0.1624,-0.1617,-0.1649,-0.1642,-0.1659,-0.167,-0.1682,-0.1762,-0.1791,-0.1895,-0.1912,-0.1987,-0.2037,-0.2156,-0.228,-0.2374,-0.2352,-0.2355,-0.2398,-0.2231,-0.2206,-0.2254,-0.2204,-0.2339,-0.2336,-0.2334,-0.2332,0,-0.1537,-0.1546,-0.1548,-0.1539,-0.1539,-0.1547,-0.1575,-0.1585,-0.169,-0.1732,-0.1797,-0.1837,-0.1957,-0.2041,-0.2139,-0.22,-0.2241,-0.2306,-0.2191,-0.2091,-0.2086,-0.2039,-0.234,-0.231,-0.2312,-0.2314,-0.2315,-0.2316,-0.145,-0.1426,-0.1424,-0.1411,-0.1423,-0.1425,-0.14,-0.146,-0.1487,-0.1549,-0.1661,-0.1702,-0.1852,-0.1994,-0.1994,-0.1976,-0.2084,-0.1984,-0.1965,-0.2035,-0.1938,-0.2143,-0.2091,-0.2092,-0.2092,-0.2093,-0.2094,0,-0.1319,-0.1305,-0.1293,-0.1279,-0.1271,-0.131,-0.1325,-0.1297,-0.1307,-0.1404,-0.1459,-0.1616,-0.1655,-0.1729,-0.1807,-0.1694,-0.1715,-0.1606,-0.1657,-0.1629,-0.185,-0.1801,-0.1613,-0.1613,-0.1613,-0.1613,-0.1613,-0.1613,-0.1239,-0.1179,-0.118,-0.1124,-0.1132,-0.1083,-0.1073,-0.1056,-0.1093,-0.1155,-0.1261,-0.1372,-0.1493,-0.1603,-0.1463,-0.1398,-0.1308,-0.1309,-0.1274,-0.1392,-0.1426,-0.1459,-0.1401,-0.1131,-0.1131,-0.107,-0.1069,-0.1068]},{"header":{"parameterUnit":"m.s-1","parameterCategory":2,"la1":30.2991,"la2":30.254,"lo1":-89.0895,"lo2":-89.0444,"dy":0.0017,"dx":0.0017,"nx":28,"ny":28,"refTime":"2025-07-13T21:00:00:Z","depth":"0","parameterNumber":3,"parameterNumberName":"V-component_of_CURRENTS"},"data":[0,0,0,0,0,0,0,0,0,0,0,0,0,0,0,0,0,0,0,0,0,0,0,0,0,0,0,0,0,0,0,0,0,0,0,0,0,0,0,0,0,0,0,0,0,0,0,0,0,0,0,0,0,0,0,0,0,0,-0.1354,-0.1354,0,-0.1377,-0.1378,-0.1378,-0.1375,-0.1375,-0.1375,-0.1375,-0.1305,-0.1303,-0.1301,0,0,0,0,0,0,0,0,0,0,0,0,0,-0.1265,-0.1267,-0.1354,-0.1354,-0.1355,-0.1377,-0.1378,-0.1378,-0.1376,-0.1375,-0.1375,-0.1375,-0.1305,-0.1303,-0.1301,0,0,0,0,0,0,0,0,0,0,0,0,0,-0.1296,-0.1268,-0.1354,-0.1358,-0.1358,-0.1377,-0.1378,-0.1378,-0.1376,-0.1375,-0.1375,-0.1375,-0.1306,-0.1303,-0.1301,-0.1291,0,0,-0.1293,-0.1292,0,0,0,0,0,0,0,0,-0.1294,-0.1299,-0.1356,-0.1357,-0.1358,-0.1375,-0.1321,-0.1345,-0.1376,-0.1367,-0.1375,-0.1375,-0.1321,-0.1317,-0.1321,-0.1288,-0.1285,-0.1293,-0.1292,-0.129,-0.129,0,0,0,0,0,0,0,-0.1292,-0.1298,-0.1361,-0.1357,-0.1358,-0.1344,-0.1348,-0.1325,-0.1342,-0.1368,-0.1368,-0.1374,-0.132,-0.1324,-0.1319,-0.1284,-0.1293,-0.1291,-0.1289,-0.1288,-0.1265,-0.1266,0,0,0,0,0,0,-0.1296,-0.1296,-0.136,-0.1362,-0.1327,-0.1346,-0.1351,-0.1368,-0.1344,-0.1342,-0.1374,-0.1374,-0.1328,-0.1322,-0.1316,-0.13,-0.129,-0.1288,-0.1287,-0.1264,-0.1265,-0.1266,0,0,0,0,0,0,-0.1294,-0.1302,-0.136,-0.133,-0.1337,-0.1349,-0.1368,-0.1369,-0.1371,-0.1351,-0.1346,-0.1375,-0.1327,-0.132,-0.1311,-0.1297,-0.1287,-0.1285,-0.1263,-0.1265,-0.1266,-0.1269,0,0,0,0,0,0,-0.1292,-0.1301,-0.1309,-0.1331,-0.1339,-0.1365,-0.1368,-0.137,-0.1376,-0.1375,-0.1349,-0.1343,-0.1327,-0.1315,-0.1308,-0.1294,-0.1283,-0.1262,-0.1264,-0.1266,-0.1268,-0.127,-0.1273,0,0,0,0,0,-0.1289,-0.1298,-0.131,-0.1317,-0.1351,-0.1365,-0.1367,-0.1373,-0.1376,-0.1374,-0.1372,-0.1344,-0.1321,-0.1314,-0.1306,-0.129,-0.1261,-0.1263,-0.1265,-0.1267,-0.127,-0.1272,0,0,0,0,0,0,-0.1248,-0.13,-0.1312,-0.1333,-0.1347,-0.1365,-0.1365,-0.1374,-0.1372,-0.1369,-0.1353,-0.1347,-0.1335,-0.1321,-0.1314,-0.1293,-0.1287,-0.1287,-0.129,-0.1293,-0.1295,-0.128,-0.1281,0,0,0,0,0,-0.1249,-0.1278,-0.131,-0.1323,-0.1333,-0.135,-0.1356,-0.1362,-0.1368,-0.1367,-0.1355,-0.1345,-0.1338,-0.1323,-0.1314,-0.1296,-0.1282,-0.1285,-0.1287,-0.1289,-0.1274,-0.1257,-0.1256,-0.1273,-0.1273,-0.1273,0,0,-0.1234,-0.1268,-0.1281,-0.1318,-0.133,-0.1337,-0.1352,-0.1359,-0.1362,-0.1357,-0.1351,-0.1351,-0.134,-0.1329,-0.132,-0.1311,-0.1282,-0.1292,-0.1293,-0.1277,-0.1259,-0.1257,-0.1255,-0.1275,-0.1274,-0.1274,0,0,-0.1217,-0.1252,-0.1267,-0.1283,-0.1308,-0.1323,-0.1326,-0.1346,-0.1351,-0.1354,-0.1356,-0.1352,-0.1337,-0.1327,-0.1321,-0.1329,-0.13,-0.133,-0.1314,-0.1298,-0.1296,-0.1294,-0.1287,-0.1284,-0.1323,-0.1323,-0.1323,0,-0.1194,-0.1225,-0.1267,-0.1279,-0.1289,-0.1317,-0.1318,-0.1329,-0.1342,-0.1342,-0.135,-0.1344,-0.1333,-0.1318,-0.1327,-0.1329,-0.1322,-0.13,-0.1299,-0.1296,-0.1293,-0.1287,-0.1283,-0.1323,-0.1323,-0.1323,-0.1323,0,-0.1191,-0.1208,-0.1214,-0.1249,-0.1262,-0.1268,-0.1295,-0.1302,-0.1316,-0.1325,-0.1323,-0.1325,-0.1316,-0.1319,-0.1323,-0.1303,-0.1307,-0.1307,-0.1284,-0.1291,-0.1285,-0.1281,-0.1324,-0.1324,-0.1324,-0.1324,0,0,-0.1163,-0.1205,-0.1207,-0.1217,-0.1249,-0.1261,-0.1267,-0.1282,-0.1283,-0.1294,-0.1288,-0.1291,-0.1294,-0.1288,-0.1293,-0.1281,-0.1267,-0.1285,-0.1284,-0.1266,-0.1239,-0.1293,-0.1294,-0.1267,-0.1266,-0.1266,-0.1246,0,-0.1145,-0.1164,-0.119,-0.1195,-0.1205,-0.1232,-0.1238,-0.1253,-0.1265,-0.1264,-0.1269,-0.1266,-0.1282,-0.1278,-0.1269,-0.1269,-0.1255,-0.1273,-0.1245,-0.1244,-0.1281,-0.1291,-0.1247,-0.123,-0.1242,-0.1241,-0.1241,0,-0.1136,-0.1153,-0.1158,-0.1182,-0.1188,-0.1193,-0.1213,-0.1222,-0.1228,-0.1234,-0.1229,-0.1234,-0.1222,-0.1236,-0.1222,-0.1234,-0.1231,-0.1232,-0.1231,-0.1272,-0.1291,-0.1224,-0.1222,-0.0926,-0.1235,-0.1235,-0.1236,0,-0.1112,-0.1132,-0.1139,-0.1147,-0.1174,-0.1178,-0.1193,-0.1208,-0.122,-0.1209,-0.121,-0.1197,-0.1195,-0.1186,-0.1201,-0.1204,-0.1189,-0.1191,-0.1235,-0.1239,-0.1189,-0.1191,-0.0883,-0.1167,-0.1167,-0.1167,-0.1167,0,-0.1093,-0.1092,-0.1129,-0.1131,-0.1139,-0.1164,-0.1172,-0.1179,-0.1192,-0.1207,-0.1193,-0.1201,-0.1182,-0.1181,-0.1185,-0.1209,-0.1175,-0.1229,-0.1235,-0.1194,-0.1197,-0.093,-0.0715,-0.1166,-0.1167,-0.1167,-0.1167,0,-0.1049,-0.1078,-0.1084,-0.1115,-0.1127,-0.1132,-0.1171,-0.1185,-0.1189,-0.1205,-0.1202,-0.1197,-0.1204,-0.1197,-0.1184,-0.12,-0.1053,-0.122,-0.1184,-0.1188,-0.0978,-0.0767,-0.0551,-0.0433,-0.126,-0.1262,-0.1263,0,-0.1019,-0.1023,-0.1066,-0.1084,-0.1095,-0.1118,-0.1146,-0.1176,-0.1203,-0.122,-0.1234,-0.1229,-0.1261,-0.1265,-0.1272,-0.1283,-0.1047,-0.123,-0.1233,-0.0947,-0.0715,-0.0646,-0.0556,-0.1164,-0.1164,-0.1164,-0.1164,0,-0.095,-0.0975,-0.0988,-0.1038,-0.1074,-0.1116,-0.116,-0.1189,-0.1236,-0.1264,-0.1306,-0.1327,-0.1338,-0.1356,-0.1358,-0.1326,-0.0969,-0.1237,-0.0921,-0.0591,-0.0509,-0.0407,-0.1194,-0.1165,-0.1165,-0.1165,-0.1165,-0.1165,-0.089,-0.0895,-0.0938,-0.0983,-0.1035,-0.1108,-0.1142,-0.1222,-0.1284,-0.1373,-0.1388,-0.1493,-0.1404,-0.1425,-0.1327,-0.1008,-0.0991,-0.0873,-0.0638,-0.0601,-0.0469,-0.1282,-0.1283,-0.1283,-0.1284,-0.1284,-0.1285,0,-0.0818,-0.0848,-0.0885,-0.0954,-0.1011,-0.1056,-0.1148,-0.1201,-0.1297,-0.1478,-0.1559,-0.1612,-0.1423,-0.1223,-0.0818,-0.0462,-0.0378,-0.0188,0.0019,0.0079,-0.0617,-0.0593,-0.0467,-0.0468,-0.0468,-0.0468,-0.0469,-0.0469,-0.0783,-0.0801,-0.0842,-0.0915,-0.097,-0.1051,-0.1106,-0.1203,-0.1349,-0.1562,-0.1731,-0.1854,-0.1292,-0.0354,0.0293,0.0378,0.0742,0.0744,0.0918,0.0586,0.0542,0.05,0.0571,0.0939,0.0941,0.1494,0.1501,0.1507]}],[{"header":{"parameterUnit":"m.s-1","parameterCategory":2,"la1":30.2991,"la2":30.254,"lo1":-89.0895,"lo2":-89.0444,"dy":0.0017,"dx":0.0017,"nx":28,"ny":28,"refTime":"2025-07-13T21:00:00:Z","depth":"2","parameterNumber":2,"parameterNumberName":"U-component_of_CURRENTS"},"data":[0,0,0,0,0,0,0,0,0,0,0,0,0,0,0,0,0,0,0,0,0,0,0,0,0,0,0,0,0,0,0,0,0,0,0,0,0,0,0,0,0,0,0,0,0,0,0,0,0,0,0,0,0,0,0,0,0,0,-0.2443,-0.2444,0,-0.245,-0.2449,-0.2449,-0.2506,-0.2508,-0.251,-0.2511,-0.2523,-0.2522,-0.252,0,0,0,0,0,0,0,0,0,0,0,0,0,-0.2382,-0.2383,-0.2443,-0.2444,-0.2444,-0.245,-0.2449,-0.2449,-0.2506,-0.2508,-0.251,-0.2512,-0.2524,-0.2522,-0.252,0,0,0,0,0,0,0,0,0,0,0,0,0,-0.2397,-0.2383,-0.2443,-0.2476,-0.248,-0.245,-0.2449,-0.2449,-0.2505,-0.2508,-0.2511,-0.2513,-0.2524,-0.2522,-0.252,-0.2453,0,0,-0.2514,-0.2513,0,0,0,0,0,0,0,0,-0.2396,-0.2398,-0.2471,-0.2474,-0.2478,-0.2484,-0.2432,-0.2452,-0.2505,-0.2491,-0.2511,-0.2515,-0.2511,-0.251,-0.2499,-0.2454,-0.2454,-0.2514,-0.2512,-0.2512,-0.2511,0,0,0,0,0,0,0,-0.2395,-0.2398,-0.2442,-0.2471,-0.2476,-0.2458,-0.2463,-0.2435,-0.2482,-0.2492,-0.2498,-0.2504,-0.2513,-0.2501,-0.25,-0.2454,-0.2514,-0.2512,-0.2511,-0.251,-0.2454,-0.2453,0,0,0,0,0,0,-0.2405,-0.2397,-0.2441,-0.2442,-0.2447,-0.2457,-0.2463,-0.2475,-0.2483,-0.2488,-0.2502,-0.2507,-0.2503,-0.2502,-0.2501,-0.2527,-0.2512,-0.251,-0.2508,-0.2454,-0.2454,-0.2453,0,0,0,0,0,0,-0.2404,-0.2409,-0.2441,-0.2423,-0.2426,-0.2457,-0.2469,-0.2474,-0.2526,-0.2491,-0.2496,-0.2556,-0.2505,-0.2504,-0.2524,-0.2524,-0.2509,-0.2507,-0.2454,-0.2454,-0.2454,-0.2512,0,0,0,0,0,0,-0.2402,-0.2408,-0.2421,-0.2424,-0.2428,-0.246,-0.2467,-0.2473,-0.2524,-0.2532,-0.2537,-0.2538,-0.2507,-0.2527,-0.2522,-0.2521,-0.2505,-0.2455,-0.2454,-0.2454,-0.251,-0.2513,-0.2516,0,0,0,0,0,-0.24,-0.2447,-0.2421,-0.2427,-0.2445,-0.2461,-0.2462,-0.2487,-0.2525,-0.2545,-0.2555,-0.2541,-0.2519,-0.2526,-0.2519,-0.2518,-0.2455,-0.2454,-0.2454,-0.2509,-0.2513,-0.2516,0,0,0,0,0,0,-0.2456,-0.2456,-0.243,-0.2479,-0.2471,-0.2474,-0.2516,-0.252,-0.2542,-0.2573,-0.2546,-0.2546,-0.2558,-0.253,-0.2538,-0.2498,-0.248,-0.2478,-0.2524,-0.2528,-0.253,-0.2521,-0.2503,0,0,0,0,0,-0.2458,-0.2487,-0.2465,-0.2508,-0.2516,-0.2515,-0.2531,-0.2541,-0.2558,-0.2576,-0.2571,-0.256,-0.2534,-0.2535,-0.2508,-0.2494,-0.2444,-0.2484,-0.2487,-0.249,-0.2476,-0.2393,-0.2388,-0.2452,-0.2452,-0.2452,0,0,-0.2496,-0.25,-0.2518,-0.2519,-0.253,-0.2535,-0.2536,-0.2588,-0.2591,-0.2568,-0.2603,-0.258,-0.2536,-0.2518,-0.2519,-0.2507,-0.2452,-0.249,-0.2493,-0.2477,-0.2392,-0.2386,-0.238,-0.2451,-0.2451,-0.2451,0,0,-0.2579,-0.2588,-0.2621,-0.2611,-0.2621,-0.2607,-0.2634,-0.2641,-0.2652,-0.2654,-0.2637,-0.2624,-0.2597,-0.2551,-0.2526,-0.2529,-0.2475,-0.2523,-0.2527,-0.2448,-0.2441,-0.2435,-0.2392,-0.2381,-0.2519,-0.252,-0.252,0,-0.2603,-0.2634,-0.2636,-0.2651,-0.2648,-0.2649,-0.2662,-0.2664,-0.2672,-0.2655,-0.2683,-0.2611,-0.2601,-0.2538,-0.2544,-0.2536,-0.2489,-0.2523,-0.2451,-0.2444,-0.2437,-0.2393,-0.238,-0.2522,-0.2522,-0.2522,-0.2521,0,-0.2686,-0.2695,-0.2736,-0.2726,-0.2728,-0.2756,-0.2733,-0.274,-0.275,-0.2717,-0.2685,-0.2651,-0.2596,-0.2592,-0.2575,-0.2508,-0.2493,-0.2471,-0.2445,-0.2434,-0.2389,-0.2375,-0.2526,-0.2525,-0.2524,-0.2524,0,0,-0.2739,-0.2771,-0.2773,-0.2754,-0.276,-0.2761,-0.2777,-0.274,-0.2727,-0.2718,-0.2672,-0.2641,-0.2612,-0.2579,-0.2546,-0.2488,-0.2426,-0.2464,-0.2459,-0.2426,-0.2266,-0.222,-0.22,-0.2385,-0.2382,-0.238,-0.2267,0,-0.2773,-0.2798,-0.2807,-0.2812,-0.2813,-0.2793,-0.2788,-0.276,-0.2738,-0.2695,-0.2645,-0.2601,-0.2608,-0.2579,-0.2524,-0.244,-0.2386,-0.246,-0.2276,-0.2271,-0.2234,-0.2181,-0.1995,-0.1873,-0.2252,-0.225,-0.2248,0,-0.2809,-0.2816,-0.2825,-0.2802,-0.2802,-0.2797,-0.2752,-0.2747,-0.2688,-0.267,-0.2615,-0.2576,-0.25,-0.2508,-0.2361,-0.2405,-0.2343,-0.2286,-0.2279,-0.2198,-0.2196,-0.1937,-0.1832,-0.2224,-0.2226,-0.2228,-0.2229,0,-0.2795,-0.281,-0.2808,-0.2802,-0.2792,-0.2777,-0.2768,-0.2727,-0.2694,-0.2643,-0.2598,-0.2522,-0.2458,-0.237,-0.228,-0.2309,-0.2107,-0.2129,-0.203,-0.2028,-0.1811,-0.1794,-0.2012,-0.2012,-0.2013,-0.2013,-0.2013,0,-0.2795,-0.2782,-0.2795,-0.2783,-0.275,-0.2764,-0.2714,-0.2698,-0.2655,-0.2585,-0.2575,-0.2483,-0.2413,-0.2298,-0.2241,-0.208,-0.2071,-0.2007,-0.1975,-0.1831,-0.1818,-0.2074,-0.2082,-0.2009,-0.201,-0.2011,-0.2011,0,-0.2749,-0.2777,-0.2748,-0.2743,-0.2735,-0.2704,-0.2666,-0.2629,-0.2615,-0.2521,-0.2501,-0.2419,-0.2283,-0.2208,-0.2051,-0.2006,-0.1881,-0.1829,-0.1691,-0.1645,-0.1876,-0.189,-0.1711,-0.1708,-0.1705,-0.1703,-0.1701,0,-0.2719,-0.2706,-0.2688,-0.2668,-0.2657,-0.2624,-0.2594,-0.2593,-0.2548,-0.2454,-0.2389,-0.2266,-0.2135,-0.1919,-0.1827,-0.1706,-0.1766,-0.1464,-0.1491,-0.1848,-0.1835,-0.1853,-0.1869,-0.1237,-0.1232,-0.1228,-0.1224,0,-0.2627,-0.2624,-0.2606,-0.2567,-0.2538,-0.25,-0.2463,-0.2424,-0.2406,-0.2322,-0.2183,-0.208,-0.19,-0.1674,-0.155,-0.1448,-0.148,-0.1373,-0.17,-0.1367,-0.1398,-0.1389,-0.142,-0.1184,-0.1188,-0.1191,-0.1193,-0.1195,-0.2533,-0.2495,-0.2479,-0.2429,-0.2409,-0.2366,-0.23,-0.2274,-0.2181,-0.2081,-0.2046,-0.1852,-0.1702,-0.1452,-0.1289,-0.1144,-0.1269,-0.1152,-0.1166,-0.1185,-0.1175,-0.1201,-0.095,-0.0953,-0.0955,-0.0957,-0.0959,0,-0.2396,-0.2372,-0.2337,-0.2283,-0.223,-0.2254,-0.219,-0.2104,-0.1969,-0.1982,-0.1891,-0.152,-0.1334,-0.1172,-0.091,-0.083,-0.0826,-0.0736,-0.0727,-0.0763,-0.0796,-0.0769,-0.0435,-0.0435,-0.0434,-0.0434,0,0,-0.2325,-0.226,-0.2249,-0.2123,-0.2082,-0.1966,-0.1916,-0.1796,-0.1768,-0.1609,-0.1507,-0.164,-0.1351,-0.1069,-0.0866,-0.0646,-0.0759,-0.0592,-0.1003,-0.1049,-0.1086,-0.0997,-0.0991,0,0,0,0,0]},{"header":{"parameterUnit":"m.s-1","parameterCategory":2,"la1":30.2991,"la2":30.254,"lo1":-89.0895,"lo2":-89.0444,"dy":0.0017,"dx":0.0017,"nx":28,"ny":28,"refTime":"2025-07-13T21:00:00:Z","depth":"2","parameterNumber":3,"parameterNumberName":"V-component_of_CURRENTS"},"data":[0,0,0,0,0,0,0,0,0,0,0,0,0,0,0,0,0,0,0,0,0,0,0,0,0,0,0,0,0,0,0,0,0,0,0,0,0,0,0,0,0,0,0,0,0,0,0,0,0,0,0,0,0,0,0,0,0,0,0.0211,0.0213,0,0.0372,0.0374,0.0376,0.0577,0.058,0.0583,0.0586,0.0954,0.0961,0.0968,0,0,0,0,0,0,0,0,0,0,0,0,0,0.0053,0.0055,0.0211,0.0213,0.0214,0.0371,0.0374,0.0376,0.0576,0.058,0.0584,0.0587,0.0952,0.096,0.0968,0,0,0,0,0,0,0,0,0,0,0,0,0,0.016,0.0055,0.021,0.0332,0.0344,0.0371,0.0374,0.0377,0.0576,0.058,0.0585,0.0589,0.0949,0.0959,0.097,0.0943,0,0,0.1002,0.1006,0,0,0,0,0,0,0,0,0.0153,0.0166,0.0312,0.0324,0.0338,0.0457,0.0453,0.0576,0.0574,0.049,0.0586,0.0591,0.0803,0.0825,0.0845,0.096,0.0976,0.1002,0.1009,0.1013,0.1016,0,0,0,0,0,0,0,0.0146,0.016,0.0276,0.0314,0.0329,0.037,0.0391,0.0476,0.0624,0.0497,0.0512,0.0525,0.0812,0.0834,0.0856,0.0981,0.1002,0.1011,0.1018,0.1022,0.1286,0.1287,0,0,0,0,0,0,0.0119,0.0152,0.0271,0.0281,0.0253,0.0369,0.0392,0.0416,0.0619,0.0652,0.0521,0.0534,0.0814,0.0843,0.087,0.0973,0.1013,0.1023,0.1029,0.1285,0.1286,0.1287,0,0,0,0,0,0,0.0115,0.0128,0.0265,0.0219,0.0239,0.0367,0.0392,0.0416,0.0499,0.0634,0.0673,0.0586,0.0819,0.0855,0.0999,0.0985,0.1028,0.1037,0.1285,0.1286,0.1287,0.1101,0,0,0,0,0,0,0.011,0.0126,0.0136,0.0217,0.024,0.0307,0.0388,0.0416,0.0496,0.0516,0.0701,0.0736,0.0825,0.0982,0.1009,0.1,0.1045,0.1284,0.1285,0.1286,0.1106,0.1095,0.1086,0,0,0,0,0,0.0103,0.0126,0.0136,0.015,0.025,0.0306,0.0323,0.0429,0.0495,0.0523,0.0661,0.0734,0.1011,0.0991,0.1023,0.1016,0.1283,0.1285,0.1286,0.111,0.1098,0.1087,0,0,0,0,0,0,0.0086,0.015,0.0164,0.0209,0.0252,0.0341,0.0387,0.0441,0.0563,0.0612,0.0745,0.0789,0.0912,0.0995,0.097,0.1101,0.1157,0.1165,0.1013,0.1002,0.0992,0.0969,0.1054,0,0,0,0,0,0.0068,0.01,0.0152,0.0189,0.0214,0.0294,0.0335,0.0399,0.0508,0.0569,0.0685,0.082,0.0925,0.0993,0.1105,0.1167,0.1207,0.1188,0.1177,0.1168,0.1174,0.12,0.1191,0.1293,0.1293,0.1293,0,0,0.0065,0.011,0.0125,0.0184,0.0238,0.0266,0.0336,0.0409,0.0445,0.0588,0.0701,0.0802,0.0943,0.1023,0.1082,0.1098,0.1156,0.117,0.116,0.1172,0.12,0.119,0.118,0.1294,0.1294,0.1293,0,0,0.0076,0.012,0.014,0.0171,0.0238,0.0279,0.0302,0.0392,0.0455,0.0541,0.0656,0.0752,0.0913,0.0987,0.105,0.1056,0.1113,0.1093,0.1009,0.1032,0.1022,0.1014,0.1012,0.1006,0.1073,0.1072,0.1072,0,0.0058,0.0095,0.0153,0.0179,0.0201,0.0284,0.0298,0.0358,0.0482,0.0513,0.0576,0.0773,0.0891,0.0963,0.0967,0.1029,0.1043,0.1027,0.1011,0.1005,0.1,0.1,0.0996,0.1063,0.1064,0.1065,0.1066,0,0.0078,0.0098,0.0125,0.0168,0.0199,0.0233,0.0296,0.0345,0.0418,0.0464,0.0562,0.069,0.0797,0.0834,0.091,0.0925,0.0944,0.0995,0.1019,0.0977,0.0982,0.098,0.1051,0.1054,0.1057,0.1059,0,0,0.0037,0.0111,0.0113,0.0116,0.0191,0.0213,0.0265,0.0305,0.0332,0.0429,0.0451,0.06,0.0645,0.072,0.0799,0.0818,0.0783,0.0875,0.0881,0.0834,0.0802,0.0808,0.0807,0.0812,0.0812,0.0811,0.0802,0,0.0016,0.0035,0.0085,0.0094,0.0103,0.0169,0.0196,0.025,0.0312,0.0354,0.045,0.0524,0.0606,0.0639,0.0667,0.0778,0.0777,0.078,0.0888,0.0891,0.0869,0.0806,0.0884,0.0882,0.0801,0.0801,0.08,0,-0.0004,0.0013,0.0005,0.0033,0.0043,0.0055,0.0091,0.0127,0.02,0.0247,0.0305,0.0394,0.0453,0.0527,0.0631,0.0622,0.0695,0.0764,0.0766,0.0843,0.0895,0.0927,0.0883,0.0798,0.0798,0.0799,0.0799,0,-0.0084,-0.0053,-0.0069,-0.0057,-0.0007,-0.0007,0.0019,0.0083,0.011,0.0166,0.0187,0.0273,0.0323,0.0417,0.0559,0.0591,0.0657,0.0726,0.079,0.0791,0.0921,0.0933,0.078,0.078,0.078,0.078,0.078,0,-0.0138,-0.0151,-0.0114,-0.0123,-0.0144,-0.0086,-0.0095,-0.0053,-0.0001,0.0015,0.0114,0.0139,0.0299,0.037,0.0495,0.0616,0.0601,0.0763,0.0788,0.0856,0.0863,0.0864,0.0874,0.078,0.078,0.078,0.078,0,-0.022,-0.0195,-0.0212,-0.0185,-0.0183,-0.0199,-0.0165,-0.0162,-0.0111,-0.0092,-0.0079,0.0029,0.0103,0.024,0.0391,0.0535,0.0654,0.0698,0.0748,0.078,0.0787,0.0789,0.0778,0.0779,0.0779,0.0779,0.0779,0,-0.0259,-0.0278,-0.0273,-0.0288,-0.028,-0.0289,-0.0288,-0.0229,-0.0213,-0.0155,-0.0149,-0.0086,-0.0028,0.0165,0.044,0.0626,0.0583,0.0777,0.0875,0.0761,0.0787,0.0788,0.0789,0.0962,0.0963,0.0965,0.0966,0,-0.0334,-0.0333,-0.0343,-0.0375,-0.0387,-0.0392,-0.0384,-0.0389,-0.0319,-0.0304,-0.0279,-0.0238,-0.0,0.0267,0.0518,0.0642,0.0758,0.0809,0.0678,0.0944,0.0932,0.0958,0.0953,0.0977,0.0976,0.0975,0.0974,0.0974,-0.0389,-0.0415,-0.0429,-0.0459,-0.0474,-0.0489,-0.0508,-0.0489,-0.0485,-0.0408,-0.0346,-0.0162,0.0123,0.058,0.0665,0.081,0.087,0.0946,0.0944,0.0939,0.0956,0.0944,0.0993,0.0992,0.0991,0.0991,0.099,0,-0.0443,-0.0467,-0.0507,-0.0536,-0.0573,-0.0553,-0.0562,-0.0561,-0.0576,-0.0389,-0.0315,0.0064,0.039,0.059,0.0921,0.106,0.1059,0.0964,0.0988,0.0983,0.0976,0.0993,0.1041,0.1039,0.1038,0.1036,0,0,-0.0469,-0.0521,-0.0539,-0.0616,-0.064,-0.0671,-0.0684,-0.0673,-0.0539,-0.0399,-0.0129,0.026,0.0576,0.0789,0.0908,0.0976,0.0904,0.0937,0.0922,0.0934,0.0922,0.1031,0.1059,0,0,0,0,0]}],[{"header":{"parameterUnit":"m.s-1","parameterCategory":2,"la1":30.2991,"la2":30.254,"lo1":-89.0895,"lo2":-89.0444,"dy":0.0017,"dx":0.0017,"nx":28,"ny":28,"refTime":"2025-07-13T21:00:00:Z","depth":"4","parameterNumber":2,"parameterNumberName":"U-component_of_CURRENTS"},"data":[0,0,0,0,0,0,0,0,0,0,0,0,0,0,0,0,0,0,0,0,0,0,0,0,0,0,0,0,0,0,0,0,0,0,0,0,0,0,0,0,0,0,0,0,0,0,0,0,0,0,0,0,0,0,0,0,0,0,-0.1202,-0.1203,0,-0.1264,-0.1265,-0.1265,-0.1307,-0.1307,-0.1307,-0.1307,-0.136,-0.1361,-0.1362,0,0,0,0,0,0,0,0,0,0,0,0,0,-0.1136,-0.1137,-0.1202,-0.1203,-0.1203,-0.1264,-0.1265,-0.1266,-0.1307,-0.1307,-0.1307,-0.1307,-0.1359,-0.1361,-0.1362,0,0,0,0,0,0,0,0,0,0,0,0,0,-0.1179,-0.1137,-0.1202,-0.1231,-0.1234,-0.1264,-0.1265,-0.1266,-0.1307,-0.1307,-0.1307,-0.1307,-0.1359,-0.136,-0.1362,-0.1367,0,0,-0.1368,-0.1368,0,0,0,0,0,0,0,0,-0.1176,-0.1181,-0.1226,-0.1229,-0.1232,-0.1277,-0.1261,-0.1299,-0.1306,-0.128,-0.1307,-0.1308,-0.1331,-0.1335,-0.1347,-0.1369,-0.1371,-0.1368,-0.1369,-0.137,-0.137,0,0,0,0,0,0,0,-0.1173,-0.1179,-0.1227,-0.1226,-0.123,-0.1246,-0.1253,-0.1268,-0.1303,-0.1282,-0.1285,-0.1291,-0.1332,-0.1345,-0.1348,-0.1372,-0.1368,-0.1369,-0.137,-0.1371,-0.1458,-0.1459,0,0,0,0,0,0,-0.1163,-0.1176,-0.1225,-0.1229,-0.1204,-0.1247,-0.1254,-0.1263,-0.1303,-0.1309,-0.129,-0.1292,-0.1342,-0.1346,-0.135,-0.1415,-0.137,-0.1371,-0.1372,-0.1457,-0.1458,-0.146,0,0,0,0,0,0,-0.1162,-0.1167,-0.1223,-0.1203,-0.1211,-0.1248,-0.1257,-0.1264,-0.1297,-0.1309,-0.1316,-0.1318,-0.1342,-0.1348,-0.1384,-0.1415,-0.1372,-0.1374,-0.1455,-0.1457,-0.1459,-0.1508,0,0,0,0,0,0,-0.1159,-0.1166,-0.1181,-0.1202,-0.1212,-0.1253,-0.1257,-0.1265,-0.1298,-0.1302,-0.1335,-0.1339,-0.1343,-0.1381,-0.1386,-0.1417,-0.1375,-0.1454,-0.1456,-0.1458,-0.1505,-0.1512,-0.1517,0,0,0,0,0,-0.1157,-0.117,-0.1181,-0.1188,-0.1227,-0.1253,-0.126,-0.1287,-0.1299,-0.1317,-0.1342,-0.1339,-0.1399,-0.1384,-0.1389,-0.1421,-0.1453,-0.1456,-0.1458,-0.1503,-0.151,-0.1517,0,0,0,0,0,0,-0.115,-0.1177,-0.1189,-0.1211,-0.1236,-0.126,-0.1282,-0.1299,-0.1333,-0.1342,-0.1354,-0.136,-0.1404,-0.1404,-0.1387,-0.1453,-0.1426,-0.143,-0.1458,-0.1465,-0.1471,-0.1452,-0.1377,0,0,0,0,0,-0.1154,-0.1174,-0.1198,-0.1219,-0.1233,-0.1262,-0.1281,-0.1298,-0.1324,-0.1341,-0.1364,-0.1389,-0.1417,-0.1434,-0.1453,-0.1488,-0.147,-0.1513,-0.1519,-0.1524,-0.1512,-0.1522,-0.1528,-0.1469,-0.1469,-0.1469,0,0,-0.116,-0.1176,-0.119,-0.122,-0.1244,-0.1266,-0.1275,-0.1307,-0.1333,-0.134,-0.1389,-0.1411,-0.143,-0.1472,-0.1492,-0.1479,-0.1531,-0.1527,-0.1532,-0.1516,-0.1526,-0.1531,-0.1536,-0.1471,-0.147,-0.147,0,0,-0.1167,-0.1194,-0.1209,-0.1232,-0.1265,-0.1284,-0.1296,-0.1332,-0.1359,-0.1401,-0.1417,-0.1455,-0.1496,-0.1517,-0.1533,-0.1582,-0.1562,-0.1596,-0.1614,-0.1626,-0.163,-0.1634,-0.1613,-0.1615,-0.16,-0.16,-0.1601,0,-0.1173,-0.1192,-0.1218,-0.1236,-0.1257,-0.1293,-0.1312,-0.1346,-0.139,-0.1411,-0.1422,-0.1493,-0.1515,-0.1563,-0.1585,-0.1596,-0.1586,-0.1587,-0.1633,-0.1636,-0.1639,-0.1617,-0.1618,-0.1603,-0.1603,-0.1603,-0.1602,0,-0.1182,-0.1208,-0.1221,-0.1255,-0.1282,-0.1308,-0.1348,-0.1385,-0.142,-0.1447,-0.1507,-0.1541,-0.1576,-0.1603,-0.1612,-0.1654,-0.1634,-0.1638,-0.1611,-0.1648,-0.1622,-0.1622,-0.1607,-0.1606,-0.1605,-0.1605,0,0,-0.1165,-0.1217,-0.1224,-0.1242,-0.1295,-0.1314,-0.1364,-0.141,-0.1439,-0.1497,-0.1529,-0.16,-0.1615,-0.1632,-0.1657,-0.1676,-0.1697,-0.1669,-0.1669,-0.1642,-0.1699,-0.1539,-0.1524,-0.1714,-0.1715,-0.1715,-0.1671,0,-0.1166,-0.1197,-0.1226,-0.1266,-0.1285,-0.1334,-0.1374,-0.1423,-0.1466,-0.1507,-0.1559,-0.1599,-0.1628,-0.1649,-0.1677,-0.1695,-0.17,-0.1706,-0.1672,-0.167,-0.1519,-0.1519,-0.1717,-0.1671,-0.1671,-0.1671,-0.1671,0,-0.1158,-0.1181,-0.1216,-0.1266,-0.1281,-0.1313,-0.1374,-0.1413,-0.1478,-0.151,-0.1561,-0.1592,-0.1644,-0.1654,-0.1695,-0.17,-0.1696,-0.1704,-0.1702,-0.153,-0.151,-0.1628,-0.167,-0.167,-0.167,-0.167,-0.167,0,-0.112,-0.1173,-0.1201,-0.1221,-0.1284,-0.1313,-0.1351,-0.1416,-0.1445,-0.1508,-0.152,-0.1591,-0.1605,-0.1644,-0.1664,-0.1684,-0.168,-0.1707,-0.1553,-0.1542,-0.1679,-0.1676,-0.171,-0.171,-0.171,-0.171,-0.171,0,-0.1096,-0.112,-0.1189,-0.1203,-0.1236,-0.129,-0.1329,-0.1375,-0.1429,-0.1441,-0.1514,-0.1513,-0.1603,-0.1613,-0.1647,-0.158,-0.1664,-0.1534,-0.1515,-0.1701,-0.17,-0.1679,-0.1676,-0.1708,-0.1708,-0.1709,-0.1709,0,-0.1042,-0.1093,-0.1124,-0.1194,-0.1218,-0.124,-0.1306,-0.1325,-0.1383,-0.1394,-0.1409,-0.1454,-0.144,-0.1497,-0.1529,-0.1513,-0.1502,-0.1454,-0.1618,-0.1613,-0.1361,-0.1362,-0.1277,-0.1271,-0.1266,-0.1261,-0.1258,0,-0.1013,-0.1027,-0.1103,-0.1121,-0.1154,-0.1199,-0.1223,-0.1295,-0.1305,-0.1338,-0.1324,-0.1315,-0.1331,-0.1244,-0.1322,-0.1329,-0.1326,-0.1319,-0.1365,-0.1324,-0.1316,-0.1324,-0.1332,-0.1249,-0.1248,-0.1247,-0.1245,0,-0.0951,-0.0993,-0.1019,-0.1054,-0.1086,-0.1112,-0.1149,-0.1142,-0.1201,-0.1259,-0.1191,-0.1168,-0.1114,-0.1127,-0.1113,-0.1141,-0.1336,-0.1265,-0.1277,-0.132,-0.129,-0.1288,-0.1302,-0.1227,-0.123,-0.1232,-0.1233,0,-0.0909,-0.0908,-0.0952,-0.0972,-0.1008,-0.1004,-0.1039,-0.103,-0.1045,-0.1084,-0.105,-0.1047,-0.1078,-0.1022,-0.1034,-0.1014,-0.1015,-0.1031,-0.1056,-0.1076,-0.1032,-0.0966,-0.0765,0,0,0,0,0,-0.0858,-0.0848,-0.0862,-0.0875,-0.0906,-0.0922,-0.0975,-0.1012,-0.106,-0.0974,-0.101,-0.0955,-0.0903,-0.0913,-0.0851,-0.095,-0.1034,-0.0878,-0.107,-0.1127,-0.1148,-0.1116,0,0,0,0,0,0,-0.0824,-0.0836,-0.0831,-0.0788,-0.0772,-0.0789,-0.0817,-0.0857,-0.082,-0.0872,-0.0843,-0.0888,-0.0853,-0.0902,-0.082,-0.0826,-0.0928,-0.089,-0.0887,-0.1116,-0.1135,-0.1151,-0.1125,0,0,0,0,0]},{"header":{"parameterUnit":"m.s-1","parameterCategory":2,"la1":30.2991,"la2":30.254,"lo1":-89.0895,"lo2":-89.0444,"dy":0.0017,"dx":0.0017,"nx":28,"ny":28,"refTime":"2025-07-13T21:00:00:Z","depth":"4","parameterNumber":3,"parameterNumberName":"V-component_of_CURRENTS"},"data":[0,0,0,0,0,0,0,0,0,0,0,0,0,0,0,0,0,0,0,0,0,0,0,0,0,0,0,0,0,0,0,0,0,0,0,0,0,0,0,0,0,0,0,0,0,0,0,0,0,0,0,0,0,0,0,0,0,0,-0.0148,-0.0148,0,-0.0104,-0.0104,-0.0103,-0.006,-0.006,-0.0059,-0.0059,0.0016,0.0017,0.0019,0,0,0,0,0,0,0,0,0,0,0,0,0,-0.0173,-0.0173,-0.0148,-0.0148,-0.0147,-0.0105,-0.0104,-0.0103,-0.006,-0.006,-0.0059,-0.0059,0.0015,0.0017,0.0019,0,0,0,0,0,0,0,0,0,0,0,0,0,-0.0149,-0.0173,-0.0148,-0.0121,-0.0118,-0.0105,-0.0104,-0.0103,-0.0061,-0.006,-0.0059,-0.0058,0.0015,0.0017,0.0019,0.0017,0,0,0.0026,0.0027,0,0,0,0,0,0,0,0,-0.0151,-0.0148,-0.0125,-0.0123,-0.0119,-0.0087,-0.0085,-0.0062,-0.0061,-0.0082,-0.0059,-0.0058,-0.0017,-0.0012,-0.0005,0.002,0.0023,0.0026,0.0027,0.0028,0.0029,0,0,0,0,0,0,0,-0.0152,-0.015,-0.013,-0.0125,-0.0121,-0.0104,-0.0099,-0.0081,-0.0054,-0.008,-0.0077,-0.0073,-0.0015,-0.0008,-0.0003,0.0024,0.0026,0.0028,0.0029,0.003,0.0064,0.0063,0,0,0,0,0,0,-0.016,-0.0152,-0.0132,-0.0129,-0.0134,-0.0104,-0.0099,-0.0098,-0.0054,-0.0047,-0.0074,-0.0071,-0.0012,-0.0006,-0.0,-0.0001,0.0028,0.003,0.0032,0.0064,0.0063,0.0063,0,0,0,0,0,0,-0.0161,-0.0159,-0.0134,-0.0139,-0.0135,-0.0104,-0.0104,-0.0098,-0.009,-0.005,-0.0042,-0.0071,-0.0011,-0.0004,0.0012,0.0002,0.0031,0.0033,0.0065,0.0064,0.0063,-0.0003,0,0,0,0,0,0,-0.0162,-0.016,-0.0164,-0.014,-0.0135,-0.0136,-0.0104,-0.0097,-0.0089,-0.0085,-0.0046,-0.0038,-0.001,0.0008,0.0014,0.0006,0.0035,0.0065,0.0064,0.0063,0.0,-0.0005,-0.001,0,0,0,0,0,-0.0163,-0.0176,-0.0165,-0.0162,-0.0141,-0.0137,-0.0133,-0.0108,-0.009,-0.0096,-0.0065,-0.0039,0.0007,0.0009,0.0016,0.0008,0.0065,0.0064,0.0063,0.0003,-0.0004,-0.001,0,0,0,0,0,0,-0.0189,-0.0172,-0.0159,-0.0165,-0.0156,-0.013,-0.0131,-0.0114,-0.0095,-0.0088,-0.0047,-0.0038,-0.0026,-0.0002,-0.0001,0.0016,0.0042,0.0042,-0.0007,-0.0013,-0.0018,-0.0037,0.0037,0,0,0,0,0,-0.0198,-0.0201,-0.0182,-0.0188,-0.0184,-0.0159,-0.0153,-0.0138,-0.0117,-0.0107,-0.008,-0.0049,-0.0026,-0.0015,0.0009,0.0014,0.0051,0.0015,0.001,0.0005,-0.0005,0.0052,0.0052,0.006,0.006,0.006,0,0,-0.021,-0.02,-0.0202,-0.0194,-0.0181,-0.019,-0.0154,-0.0151,-0.0157,-0.0103,-0.0101,-0.0067,-0.0028,-0.002,-0.0013,-0.0001,0.0021,0.0004,-0.0001,-0.0008,0.0051,0.0051,0.005,0.0059,0.0059,0.0059,0,0,-0.0239,-0.0227,-0.024,-0.0238,-0.0227,-0.0214,-0.0217,-0.0196,-0.0185,-0.0181,-0.0139,-0.0111,-0.0085,-0.0055,-0.0037,-0.0057,-0.0007,-0.005,-0.0093,-0.0037,-0.0037,-0.0037,0.0003,0.0008,-0.0054,-0.0054,-0.0054,0,-0.0252,-0.0266,-0.0245,-0.026,-0.0263,-0.0229,-0.025,-0.0239,-0.0216,-0.0212,-0.019,-0.0139,-0.0101,-0.0084,-0.0089,-0.0069,-0.0035,-0.0074,-0.0044,-0.0042,-0.0041,0.0,0.0006,-0.0057,-0.0057,-0.0057,-0.0056,0,-0.0292,-0.0304,-0.0313,-0.032,-0.0325,-0.0335,-0.032,-0.0321,-0.03,-0.0283,-0.0262,-0.0208,-0.0177,-0.0159,-0.0131,-0.0107,-0.0086,-0.0055,-0.0029,-0.0046,-0.0001,0.0006,-0.0062,-0.0061,-0.006,-0.0059,0,0,-0.0313,-0.0337,-0.0339,-0.0356,-0.0357,-0.0365,-0.0381,-0.0383,-0.0392,-0.0358,-0.0361,-0.0307,-0.027,-0.0247,-0.0199,-0.0153,-0.0108,-0.0109,-0.0104,-0.0073,0.0005,0.0056,0.007,-0.0069,-0.0068,-0.0067,0.0029,0,-0.0347,-0.039,-0.0393,-0.0436,-0.0455,-0.0444,-0.0464,-0.0461,-0.0446,-0.0442,-0.0381,-0.0362,-0.0306,-0.0289,-0.0234,-0.0146,-0.0091,-0.0138,0.0019,0.0023,0.0069,0.0079,-0.0064,0.0035,0.0037,0.0038,0.0039,0,-0.038,-0.0405,-0.0456,-0.0493,-0.0501,-0.0525,-0.0548,-0.0559,-0.0546,-0.0532,-0.05,-0.0454,-0.0397,-0.0337,-0.0193,-0.0227,-0.0119,-0.004,-0.0034,0.0041,0.0089,0.0058,0.0053,0.0052,0.0051,0.005,0.0049,0,-0.0399,-0.0446,-0.0489,-0.0502,-0.054,-0.0565,-0.0581,-0.0586,-0.0596,-0.0586,-0.0585,-0.0516,-0.0474,-0.0346,-0.0187,-0.019,-0.0016,0.0006,0.0156,0.0161,0.0113,0.0112,0.0127,0.0127,0.0127,0.0127,0.0126,0,-0.0426,-0.0463,-0.0504,-0.0528,-0.0583,-0.0595,-0.0641,-0.0651,-0.0656,-0.0659,-0.0625,-0.0594,-0.047,-0.0358,-0.0211,-0.0007,-0.0025,0.015,0.0194,0.0082,0.0076,0.0118,0.0116,0.013,0.013,0.0129,0.0128,0,-0.0443,-0.0469,-0.0524,-0.0575,-0.0595,-0.0632,-0.068,-0.0707,-0.0709,-0.0711,-0.071,-0.065,-0.0503,-0.036,-0.0151,-0.003,0.0154,0.0242,0.0096,0.013,0.0293,0.0286,0.0396,0.0399,0.0401,0.0403,0.0405,0,-0.0457,-0.0486,-0.0555,-0.0592,-0.0621,-0.0673,-0.0708,-0.073,-0.0744,-0.0718,-0.071,-0.0606,-0.0533,-0.0213,-0.0067,0.0193,0.0251,0.0325,0.0318,0.0291,0.0323,0.0312,0.0302,0.0408,0.0409,0.041,0.041,0,-0.0483,-0.0509,-0.0553,-0.0623,-0.0673,-0.0728,-0.0768,-0.0774,-0.0775,-0.0781,-0.0665,-0.0524,-0.0359,-0.0164,0.0031,0.0226,0.0252,0.035,0.0346,0.0341,0.0307,0.0334,0.0322,0.0418,0.0417,0.0416,0.0416,0,-0.05,-0.0537,-0.059,-0.065,-0.0719,-0.0761,-0.0779,-0.0758,-0.0757,-0.0702,-0.065,-0.0485,-0.0401,-0.0141,0.0049,0.0223,0.0274,0.0331,0.0329,0.0322,0.0273,0.0217,0.0342,0,0,0,0,0,-0.0511,-0.0552,-0.0612,-0.0683,-0.075,-0.0783,-0.0813,-0.0816,-0.0797,-0.0698,-0.0664,-0.049,-0.0212,-0.0114,0.0078,0.007,0.0272,0.0298,0.0329,0.0463,0.0454,0.0414,0,0,0,0,0,0,-0.0526,-0.0581,-0.061,-0.0694,-0.0742,-0.0811,-0.0825,-0.0811,-0.0738,-0.0688,-0.0537,-0.0444,-0.0185,-0.0321,0.0078,0.0125,0.0175,0.0422,0.0427,0.0468,0.046,0.0452,0.0408,0,0,0,0,0]}]]